GW0602 Weather Reports


time (UTC)temp
C
wind
direction
speed
KPH
gust
KPH
rain 1hr
cm
rain 24hr
cm
rain mn
cm
humidity
%
barometer
mb
20260505040059 13 136 8.0 14.5 0.00 0.00 0.00 38 1008.6
20260505034543 13 136 3.2 11.3 0.00 0.00 0.00 35 1008.5
20260505033049 14 136 4.8 17.7 0.00 0.00 0.00 36 1008.4
20260505031557 13 136 6.4 12.9 0.00 0.00 0.00 37 1008.4
20260505030052 13 136 6.4 14.5 0.00 0.00 0.00 39 1008.3
20260505024551 13 136 6.4 14.5 0.00 0.00 0.00 41 1008.3
20260505023048 12 136 4.8 9.7 0.00 0.00 0.00 43 1008.2
20260505021547 13 136 3.2 6.4 0.00 0.00 0.00 43 1008.1
20260505020052 14 136 0.0 3.2 0.00 0.00 0.00 41 1008.1
20260505014602 15 0 0.0 3.2 0.00 0.00 0.00 42 1007.9
20260505013051 16 136 1.6 4.8 0.00 0.00 0.00 39 1007.8
20260505011551 17 136 0.0 3.2 0.00 0.00 0.00 29 1008.0
20260505010048 15 136 1.6 16.1 0.00 0.00 0.00 35 1008.2
20260505004556 14 136 4.8 12.9 0.00 0.00 0.00 37 1008.4
20260505003047 14 136 1.6 29.0 0.00 0.00 0.00 36 1008.8
20260505001548 14 136 11.3 29.0 0.00 0.00 0.00 40 1008.9
20260505000055 16 136 11.3 27.4 0.00 0.00 0.00 36 1008.7
20260504234546 16 136 3.2 4.8 0.00 0.00 0.00 36 1007.9
20260504233049 17 136 1.6 4.8 0.00 0.00 0.00 40 1007.9
20260504231547 18 136 0.0 4.8 0.00 0.00 0.00 26 1007.7
20260504230050 18 136 1.6 4.8 0.00 0.00 0.00 34 1007.6
20260504224551 18 136 0.0 11.3 0.00 0.00 0.00 28 1007.7
20260504223050 18 136 1.6 6.4 0.00 0.00 0.00 31 1007.8
20260504221549 19 136 4.8 6.4 0.00 0.00 0.00 26 1007.9
20260504220048 18 136 4.8 11.3 0.00 0.00 0.00 36 1008.2
20260504214554 17 136 4.8 6.4 0.00 0.00 0.00 29 1008.4
20260504213054 18 136 1.6 3.2 0.00 0.00 0.00 30 1008.6
20260504211550 16 0 0.0 0.0 0.00 0.00 0.00 31 1009.0
20260504210059 16 136 0.0 3.2 0.00 0.00 0.00 30 1009.1
20260504204606 16 136 0.0 4.8 0.00 0.00 0.00 33 1009.3
20260504203101 15 136 3.2 9.7 0.00 0.00 0.00 37 1009.6
20260504201541 15 136 0.0 6.4 0.00 0.00 0.00 42 1009.7
20260504200049 15 136 1.6 4.8 0.00 0.00 0.00 43 1009.7
20260504194549 16 136 3.2 11.3 0.00 0.00 0.00 33 1009.9
20260504193047 18 136 3.2 11.3 0.00 0.00 0.00 27 1010.0
20260504191547 17 136 1.6 6.4 0.00 0.00 0.00 32 1010.2
20260504190054 17 136 3.2 9.7 0.00 0.00 0.00 31 1010.4
20260504184549 16 136 0.0 6.4 0.00 0.03 0.00 35 1010.6
20260504183047 16 136 4.8 9.7 0.00 0.03 0.00 29 1010.8
20260504181547 15 136 0.0 4.8 0.00 0.03 0.00 37 1011.0
20260504180058 15 136 4.8 9.7 0.00 0.03 0.00 36 1011.1
20260504174550 15 136 3.2 6.4 0.00 0.03 0.00 33 1011.1
20260504173102 16 136 1.6 4.8 0.00 0.03 0.00 33 1011.3
20260504171551 -17 0.0 0.0 0.00 0.03 0.00 1011.4
20260504081558 7 136 1.6 4.8 0.00 0.03 0.00 43 1012.3
20260504044545 10 136 6.4 11.3 0.00 0.03 0.03 32 1013.1
20260504043054 10 136 8.0 11.3 0.00 0.03 0.03 34 1013.1
20260504041545 10 136 8.0 12.9 0.00 0.03 0.03 34 1013.1